sat.trackr.live / text

‹ back to catalog

STARLINK-33878

NORAD 63862 · 2025-093AC

PAYLOAD ACTIVE UNKNOWN

§ Identity

Operator
Country
US
Launch date
2025-05-07
Launch site
AFETR
Launch vehicle
Mass (kg)
RCS (m²)

Purposes: comms

External: N2YO · Heavens-Above · Gunter

§ Orbital elements

Epoch: 2026-09-19T17:06:41.646528Z

Period
94.27 min
Inclination
43.0028°
Eccentricity
0.0001331
Mean motion
15.27599922 rev/d
Perigee alt
482.1 km
Apogee alt
483.9 km
Semi-major
6,861.1 km
B*
6.7666e-4
RAAN
62.2705°
Arg perigee
271.4367°
Mean anomaly
88.6332°
Rev number
7,763

§ Raw data

STARLINK-338781 63862U 25093AC  26262.71298202  .00018416  00000+0  67666-3 0  99962 63862  43.0028  62.2705 0001331 271.4367  88.6332 15.27599922 77638

JSON: /api/v1/satellites/63862 · /tle

For live sub-satellite position, see the globe view (requires WebGL).

§ Visibility from observer

Set your observer location to see the next 7 days of passes ≥ 10°. The values pass through the URL so the page stays shareable.

No JS? Fill the form by hand. The geolocation button needs JavaScript.